Weather reports worldwide

Advertisment
Prestwick, United Kingdom (3136): temperature & dewpoint: 17.01.2019 23:00:00 - 23.01.2019 23:00:00 (GMT)Prestwick, United Kingdom (3136): temperature -20cm & temperature -100cm: 17.01.2019 23:00:00 - 23.01.2019 23:00:00 (GMT)Prestwick, United Kingdom (3136): wind speed & gusts: 17.01.2019 23:00:00 - 23.01.2019 23:00:00 (GMT)Prestwick, United Kingdom (3136): wind direction: 17.01.2019 23:00:00 - 23.01.2019 23:00:00 (GMT)Prestwick, United Kingdom (3136): reduced air pressure: 17.01.2019 23:00:00 - 23.01.2019 23:00:00 (GMT)Prestwick, United Kingdom (3136): visibility: 17.01.2019 23:00:00 - 23.01.2019 23:00:00 (GMT)Prestwick, United Kingdom (3136): sunshine duration: 17.01.2019 23:00:00 - 23.01.2019 23:00:00 (GMT)Prestwick, United Kingdom (3136): precipitation: 17.01.2019 23:00:00 - 23.01.2019 23:00:00 (GMT)
Date & Time tt [°C] td [°C] tt -20cm [°C] tt -100cm [°C] ff [km/h] ff [kn] fx [km/h] fx [kn] dd ppp [hPa] vv [km] sd [min] rr [mm]
23.01.2019 23:00:00 4,7 4,1 - - 8 4 - - S 1005,1 30 0 0,0
23.01.2019 22:00:00 3,2 2,2 - - 8 4 - - SE 1004,8 45 0 0,2
23.01.2019 21:00:00 3,4 2,1 - - 5 3 - - SSE 1004,3 7 0 0,2
23.01.2019 20:00:00 2,8 1,8 - - 8 4 - - SSE 1004,1 45 0 0,0
23.01.2019 19:00:00 2,7 1,5 - - 15 8 - - S 1003,9 45 0 0,0
23.01.2019 18:00:00 2,2 0,9 - - 9 5 - - SSE 1003,6 50 0 0,0
23.01.2019 17:00:00 2,7 1,4 - - 8 4 - - SSE 1003,7 45 0 0,0
23.01.2019 16:00:00 2,8 1,4 - - 15 8 - - S 1003,8 8 0 0,0
23.01.2019 15:00:00 2,9 1,1 - - 9 5 - - SSE 1003,4 50 0 0,0
23.01.2019 14:00:00 2,8 0,7 - - 8 4 - - SE 1002,8 50 6 0,0
23.01.2019 13:00:00 3,6 0,7 - - 9 5 - - SE 1002,8 40 60 0,0
23.01.2019 12:00:00 2,0 0,0 - - 5 3 - - SE 1003,0 35 60 0,2
23.01.2019 11:00:00 0,0 -1,2 - - 9 5 - - E 1003,0 19 54 0,0
23.01.2019 10:00:00 -1,6 -2,1 - - 8 4 - - E 1003,0 20 0 0,0
23.01.2019 09:00:00 -2,8 -3,2 6,0 7,7 8 4 - - E 1002,7 23 0 0,0
23.01.2019 08:00:00 -3,7 -4,2 - - 4 2 - - E 1001,8 15 0 0,0
23.01.2019 07:00:00 -4,7 -5,2 - - 4 2 - - E 1001,1 15 0 0,0
23.01.2019 06:00:00 -4,5 -5,0 - - 5 3 - - E 1000,8 16 0 0,0
23.01.2019 05:00:00 -4,5 -5,2 - - 4 2 - - E 1000,3 18 0 0,0
23.01.2019 04:00:00 -4,1 -4,6 - - 4 2 - - E 999,7 13 0 0,0
23.01.2019 03:00:00 -3,9 -4,4 - - 2 1 - - E 999,3 11 0 0,0
23.01.2019 02:00:00 -3,5 -3,9 - - 8 4 - - ENE 999,0 15 0 0,0
23.01.2019 01:00:00 -3,5 -3,9 - - 4 2 - - SE 998,3 10 0 0,0
23.01.2019 00:00:00 -3,3 -3,8 - - 8 4 - - NE 997,9 13 - 0,0
22.01.2019 23:00:00 -2,9 -3,4 - - 8 4 - - NE 997,8 19 0 0,0
22.01.2019 22:00:00 -2,0 -2,6 - - 4 2 - - E 997,0 18 0 0,0
22.01.2019 21:00:00 -1,2 -1,9 - - 2 1 - - ESE 996,7 23 0 0,0
22.01.2019 20:00:00 -0,4 -1,4 - - 5 3 - - NE 996,3 35 0 0,0
22.01.2019 19:00:00 0,6 -0,4 - - 5 3 - - E 995,7 30 0 0,0
22.01.2019 18:00:00 0,9 -0,5 - - 5 3 - - SE 995,5 45 0 0,0
22.01.2019 17:00:00 1,1 -0,1 - - 5 3 - - SSE 995,3 45 0 0,0
22.01.2019 16:00:00 2,1 0,5 - - 9 5 - - W 995,5 50 0 0,0
22.01.2019 15:00:00 2,3 -0,6 - - 9 5 - - NNW 995,6 50 6 0,0
22.01.2019 14:00:00 3,2 0,7 - - 9 5 - - W 995,6 45 18 0,0
22.01.2019 13:00:00 2,7 1,0 - - 9 5 - - WNW 996,0 50 6 0,0
22.01.2019 12:00:00 3,0 1,6 - - 16 9 - - W 996,6 50 0 0,0
22.01.2019 11:00:00 1,3 0,5 - - 11 6 - - W 997,0 30 0 1,0
22.01.2019 10:00:00 3,2 1,0 - - 18 10 - - W 997,4 50 0 0,0
22.01.2019 09:00:00 3,8 0,9 6,2 7,7 22 12 - - W 997,4 45 0 0,0
22.01.2019 08:00:00 3,6 0,4 - - 22 12 - - WSW 997,6 21 0 0,0
22.01.2019 07:00:00 4,2 0,7 - - 24 13 - - WSW 997,9 27 0 0,2
22.01.2019 06:00:00 3,6 1,1 - - 22 12 - - WSW 998,5 15 0 0,0
22.01.2019 05:00:00 3,6 0,6 - - 21 11 - - WSW 998,3 35 0 0,0
22.01.2019 04:00:00 4,3 0,8 - - 16 9 - - W 998,5 30 0 0,0
22.01.2019 03:00:00 3,3 1,4 - - 15 8 - - W 999,2 50 0 0,0
22.01.2019 02:00:00 3,7 1,4 - - 21 11 - - WSW 999,6 45 0 0,0
22.01.2019 01:00:00 3,4 1,7 - - 24 13 48 26 W 999,9 45 0 1,2
22.01.2019 00:00:00 -3,3 -3,8 - - 8 4 - - NE 997,9 13 - 0,0
21.01.2019 23:00:00 2,8 2,0 - - 9 5 - - SE 1000,0 12 0 0,4
21.01.2019 22:00:00 2,8 1,7 - - 2 1 - - NNW 1000,3 22 0 1,0
21.01.2019 21:00:00 3,8 2,3 - - 16 9 - - NW 1000,8 5 0 1,6
21.01.2019 20:00:00 4,3 3,0 - - 28 15 54 29 SSW 1000,8 16 0 1,6
21.01.2019 19:00:00 4,6 3,3 - - 35 19 57 31 S 1001,9 5 0 2,2
21.01.2019 18:00:00 4,3 3,1 - - 31 17 48 26 S 1003,3 4,6 0 2,8
21.01.2019 17:00:00 4,3 2,8 - - 26 14 - - S 1004,9 4,7 0 1,4
21.01.2019 16:00:00 4,1 2,3 - - 29 16 52 28 S 1007,0 10 0 0,6
21.01.2019 15:00:00 4,9 1,5 - - 39 21 52 28 S 1009,1 12 0 0,0
21.01.2019 14:00:00 5,0 1,3 - - 28 15 - - S 1011,2 40 0 0,0
21.01.2019 13:00:00 4,7 0,8 - - 22 12 - - S 1013,2 30 0 0,0
21.01.2019 12:00:00 3,9 1,2 - - 16 9 - - S 1015,2 35 0 0,0
21.01.2019 11:00:00 3,2 0,8 - - 16 9 - - SSE 1016,9 25 0 0,0
21.01.2019 10:00:00 2,5 0,5 - - 16 9 - - S 1018,2 26 0 0,0
21.01.2019 09:00:00 2,3 0,6 6,4 7,7 15 8 - - S 1019,0 21 0 0,0
21.01.2019 08:00:00 2,4 0,5 - - 13 7 - - SSE 1020,0 23 0 0,2
21.01.2019 07:00:00 2,1 0,1 - - 15 8 - - SSE 1020,9 30 0 0,0
21.01.2019 06:00:00 1,5 -0,6 - - 9 5 - - SE 1021,7 30 0 0,0
21.01.2019 05:00:00 1,1 -1,1 - - 11 6 - - SE 1022,3 40 0 0,0
21.01.2019 04:00:00 0,7 -1,4 - - 9 5 - - SE 1023,1 29 0 0,0
21.01.2019 03:00:00 -0,1 -2,2 - - 8 4 - - ESE 1023,5 30 0 0,0
21.01.2019 02:00:00 -0,2 -1,8 - - 8 4 - - ESE 1024,1 30 0 0,0
21.01.2019 01:00:00 0,1 -1,3 - - 8 4 - - SE 1024,6 24 0 0,0
21.01.2019 00:00:00 -1,3 -2,1 - - 5 3 - - E 1024,7 23 - 0,0
20.01.2019 23:00:00 -1,7 -2,6 - - 4 2 - - E 1024,7 21 0 0,0
20.01.2019 22:00:00 -1,4 -2,3 - - 9 5 - - ENE 1024,9 18 0 0,0
20.01.2019 21:00:00 -0,5 -1,9 - - 2 1 - - SSE 1024,6 24 0 0,0
20.01.2019 20:00:00 -0,3 -1,3 - - 4 2 - - SE 1024,0 28 0 0,0
20.01.2019 19:00:00 0,3 -1,4 - - 2 1 - - NNE 1023,2 28 0 0,0
20.01.2019 18:00:00 2,3 -0,6 - - 2 1 - - W 1022,8 40 0 0,0
20.01.2019 17:00:00 4,0 0,5 - - 8 4 - - NW 1022,0 50 0 0,0
20.01.2019 16:00:00 5,0 1,5 - - 4 2 - - NW 1021,1 30 0 0,0
20.01.2019 15:00:00 5,5 3,1 - - 8 4 - - WNW 1020,3 17 24 0,0
20.01.2019 14:00:00 4,8 4,0 - - 8 4 - - NW 1019,9 7 6 0,0
20.01.2019 13:00:00 3,7 3,0 - - 5 3 - - NNW 1019,6 3,5 0 0,6
20.01.2019 12:00:00 3,2 2,4 - - 5 3 - - SE 1018,7 3,2 0 0,6
20.01.2019 11:00:00 2,9 1,8 - - 9 5 - - SE 1018,2 7 0 0,0
20.01.2019 10:00:00 1,8 1,1 - - 4 2 - - SE 1017,8 5 0 0,0
20.01.2019 09:00:00 1,0 0,2 6,7 7,9 5 3 - - ESE 1017,0 3,8 0 0,0
20.01.2019 08:00:00 1,7 0,7 - - 5 3 - - SE 1016,2 6 0 0,0
20.01.2019 07:00:00 1,8 0,6 - - 4 2 - - SE 1015,7 6 0 0,0
20.01.2019 06:00:00 1,7 0,7 - - 4 2 - - E 1015,0 7 0 0,0
20.01.2019 05:00:00 1,3 0,5 - - 5 3 - - ENE 1014,4 9 0 0,0
20.01.2019 04:00:00 1,4 0,5 - - 5 3 - - NE 1014,0 11 0 0,0
20.01.2019 03:00:00 1,7 0,5 - - 4 2 - - NE 1013,6 11 0 0,0
20.01.2019 02:00:00 1,9 0,5 - - 4 2 - - NE 1013,2 16 0 0,0
20.01.2019 01:00:00 1,9 0,5 - - 4 2 - - N 1013,0 13 0 0,0
20.01.2019 00:00:00 1,9 0,6 - - 9 5 - - NNE 1012,6 13 - 0,0
19.01.2019 23:00:00 2,0 0,8 - - 9 5 - - NE 1012,0 14 0 0,0
19.01.2019 22:00:00 2,0 0,8 - - 9 5 - - NE 1011,8 13 0 0,0
19.01.2019 21:00:00 1,9 0,8 - - 11 6 - - NE 1011,2 12 0 0,0
19.01.2019 20:00:00 2,1 0,8 - - 11 6 - - NE 1010,7 11 0 0,0
19.01.2019 19:00:00 2,1 0,8 - - 9 5 - - NE 1010,2 12 0 0,0
19.01.2019 18:00:00 2,3 0,8 - - 11 6 - - NE 1009,9 13 0 0,0
19.01.2019 17:00:00 2,4 0,7 - - 13 7 - - NE 1009,3 15 0 0,0
19.01.2019 16:00:00 2,9 1,0 - - 13 7 - - NNE 1008,8 19 0 0,0
19.01.2019 15:00:00 4,0 1,5 - - 8 4 - - NE 1008,4 27 0 0,0
19.01.2019 14:00:00 4,1 1,4 - - 11 6 - - ENE 1008,4 35 0 0,0
19.01.2019 13:00:00 4,1 1,3 - - 13 7 - - ENE 1008,5 40 6 0,0
19.01.2019 12:00:00 4,2 1,2 - - 11 6 - - ENE 1008,5 40 48 0,0
19.01.2019 11:00:00 4,1 1,4 - - 13 7 - - E 1008,2 24 24 0,0
19.01.2019 10:00:00 2,5 0,7 - - 11 6 - - E 1007,9 23 0 0,0
19.01.2019 09:00:00 0,7 -0,4 6,7 8,0 8 4 - - NE 1007,5 12 0 0,0
19.01.2019 08:00:00 0,7 -0,4 - - 9 5 - - ENE 1006,8 13 0 0,0
19.01.2019 07:00:00 1,4 0,0 - - 8 4 - - ENE 1006,5 17 0 0,0
19.01.2019 06:00:00 2,2 0,4 - - 8 4 - - ENE 1006,3 16 0 0,0
19.01.2019 05:00:00 2,8 1,1 - - 13 7 - - E 1006,2 18 0 0,0
19.01.2019 04:00:00 2,8 1,1 - - 8 4 - - ENE 1006,3 15 0 0,0
19.01.2019 03:00:00 3,0 1,0 - - 8 4 - - NE 1006,1 17 0 0,0
19.01.2019 02:00:00 3,9 1,2 - - 8 4 - - ESE 1006,0 50 0 0,0
19.01.2019 01:00:00 3,9 1,3 - - 9 5 - - ESE 1006,1 50 0 0,0
19.01.2019 00:00:00 3,9 1,3 - - 11 6 - - ESE 1006,3 50 - 0,0
18.01.2019 23:00:00 4,1 1,5 - - 21 11 - - SE 1006,2 45 0 0,0
18.01.2019 22:00:00 4,2 1,8 - - 21 11 - - SE 1006,2 29 0 0,0
18.01.2019 21:00:00 4,2 1,3 - - 15 8 - - SE 1006,1 50 0 0,0
18.01.2019 20:00:00 3,1 1,0 - - 9 5 - - NE 1006,2 50 0 0,0
18.01.2019 19:00:00 3,0 1,0 - - 11 6 - - E 1006,3 50 0 0,2
18.01.2019 18:00:00 2,4 0,6 - - 9 5 - - ENE 1006,5 40 0 0,2
18.01.2019 17:00:00 2,3 0,3 - - 9 5 - - E 1006,9 18 0 0,0
18.01.2019 16:00:00 2,4 -0,3 - - 9 5 - - ENE 1007,2 40 0 0,0
18.01.2019 15:00:00 2,4 -0,3 - - 9 5 - - E 1007,6 35 0 0,0
18.01.2019 14:00:00 2,6 -1,0 - - 8 4 - - ESE 1008,4 30 0 0,4
18.01.2019 13:00:00 2,1 -1,2 - - 9 5 - - ESE 1009,0 9 0 0,0
18.01.2019 12:00:00 2,9 -2,5 - - 15 8 - - ESE 1009,7 17 0 0,0
18.01.2019 11:00:00 2,7 -2,8 - - 13 7 - - ESE 1009,9 40 0 0,0
18.01.2019 10:00:00 2,7 -2,7 - - 21 11 - - ESE 1010,3 50 0 0,0
18.01.2019 09:00:00 1,5 -3,1 7,0 8,2 21 11 - - ESE 1010,5 45 0 0,0
18.01.2019 08:00:00 1,2 -2,8 - - 16 9 - - ESE 1011,0 35 0 0,0
18.01.2019 07:00:00 1,7 -2,2 - - 18 10 - - ESE 1011,3 35 0 0,0
18.01.2019 06:00:00 0,9 -2,3 - - 15 8 - - ESE 1011,9 35 0 0,0
18.01.2019 05:00:00 1,1 -2,3 - - 16 9 - - ESE 1012,3 45 0 0,0
18.01.2019 04:00:00 0,4 -3,0 - - 13 7 - - ESE 1013,2 40 0 0,0
18.01.2019 03:00:00 0,3 -3,2 - - 4 2 - - ESE 1014,1 45 0 0,0
18.01.2019 02:00:00 0,3 -3,3 - - 4 2 - - E 1014,9 45 0 0,0
18.01.2019 01:00:00 0,7 -3,6 - - 9 5 - - ESE 1015,1 45 0 0,0
18.01.2019 00:00:00 0,0 -3,3 - - 8 4 - - ESE 1015,7 45 - 0,0
17.01.2019 23:00:00 0,0 -3,1 - - 5 3 - - SE 1016,3 50 0 0,0

tt = temperature
td = dewpoint
tt -20cm = temperature -20cm
tt -100cm = temperature -100cm
ff = wind speed
fx = gusts
dd = wind direction
ppp = reduced air pressure
vv = visibility
sd = sunshine duration
rr = precipitation

Next stations